Weather in Novara

Italy     45°26′06″N   8°36′41″E
temp.,
°C
wind,
m/s
gust,
m/s
humid.,
%
clouds,
%
prec.,
mm/h
press.,
hPa
HPBL,
m
17 april, sat
sat1723:00+8nw225776 0.0 101914
02:00+6n236487 0.0 101943
05:00+5n336738 0.0 101850
08:00+6nne2262100 0.0 1018100
11:00+11ese2145100 0.0 1017745
14:00+14se223999 0.0 10151776
17:00+15sse22376 0.0 10132000
20:00+11sse35585 0.0 1014112
18 april, sun
sun1823:00+8nw116987 0.0 101613
02:00+7nne22745 0.0 101614
05:00+6nne22797 0.0 101515
08:00+7ene127330 0.0 1016131
11:00+11e225646 0.0 1016948
14:00+14ese324835 0.0 10151502
17:00+15sse114231 0.0 10131885
20:00+12se345868 0.0 1014117
19 april, mon
mon1923:00+10ene127294 0.0 101653
02:00+9nnw3581100 0.4 1016245
05:00+8nnw3581100 0.3 1016207
08:00+9nne347683 0.4 1016287
11:00+13ese115647 0.1 10161085
14:00+14ssw225094 0.3 10141650
17:00+15ssw224513 0.0 10121606
20:00+12s356222 0.0 1012124
20 april, tue
tue2023:00+10wnw226825 0.0 101424
02:00+8n22765 0.0 101422
05:00+7nne23655 0.0 101355
08:00+8nne23605 0.0 1014117
11:00+14e10405 0.0 1014696
14:00+17s22404 0.0 10121676
17:00+18s323834 0.0 10112239
20:00+13s596111 0.0 1012372
21 april, wed
wed2123:00+10ssw127224 0.0 101550
02:00+9se118350 0.1 101630
05:00+8e129011 0.1 101637
08:00+9e228410 0.1 1018202
11:00+13se226256 0.0 1018946
14:00+17se224785 0.2 10171815
17:00+18sse324169 0.0 10152133
20:00+14ssw356396 0.4 1016139